Tracking 19794 objects as of 22-Jul-2019
HD Live streaming from Space Station
objects crossing your sky now

CLUSTER II-FM6

Track CLUSTER II-FM6 now!
CLUSTER II-FM6 is classified as:


NORAD ID: 26410
Int'l Code: 2000-041A
Perigee: 36,229.1 km
Apogee: 96,619.3 km
Inclination: 131.3 °
Period: 3,257.7 minutes
Semi major axis: 72795 km
RCS: 1.9953 m2 (large)
Launch date: July 16, 2000
Source: European Space Agency (ESA)
Launch site: TYURATAM MISSILE AND SPACE COMPLEX (TTMTR)
aabbcc
Your satellite tracking list
Your tracking list is empty




NASA's NSSDC Master Catalog

Two Line Element Set (TLE):
1 26410U 00041A   19204.11572206 +.00000158 +00000-0 +00000-0 0  9992
2 26410 131.3270 339.1520 4147956 173.9492 359.0494 00.44202700009121
Source of the keplerian elements: AFSPC